Time,TemperatureF,DewpointF,PressureIn,WindDirection,WindDirectionDegrees,WindSpeedMPH,WindSpeedGustMPH,Humidity,HourlyPrecipIn,Conditions,Clouds,dailyrainin,SoftwareType,DateUTC
2013-07-04 00:00:00,97.0,0.0,29.78,North,355,12.0,18.0,20,-99.99,,,-99.99,,2013-07-04 07:00:00,
2013-07-04 00:08:00,98.0,0.0,29.78,North,5,9.0,16.0,20,-99.99,,,-99.99,,2013-07-04 07:08:00,
2013-07-04 00:16:00,96.0,0.0,29.78,NNW,345,9.0,14.0,23,-99.99,,,-99.99,,2013-07-04 07:16:00,
2013-07-04 00:24:00,95.0,0.0,29.77,NW,321,8.0,12.0,21,-99.99,,,-99.99,,2013-07-04 07:24:00,
2013-07-04 00:32:00,93.0,0.0,29.77,NW,318,9.0,12.0,24,-99.99,,,-99.99,,2013-07-04 07:32:00,
2013-07-04 00:40:00,95.0,0.0,29.77,WNW,297,8.0,14.0,21,-99.99,,,-99.99,,2013-07-04 07:40:00,
2013-07-04 00:48:00,92.0,0.0,29.77,NW,308,8.0,14.0,22,-99.99,,,-99.99,,2013-07-04 07:48:00,
2013-07-04 00:56:00,94.0,0.0,29.77,NW,315,12.0,14.0,23,-99.99,,,-99.99,,2013-07-04 07:56:00,
2013-07-04 01:04:00,92.0,0.0,29.77,NW,320,10.0,14.0,22,-99.99,,,-99.99,,2013-07-04 08:04:00,
2013-07-04 01:12:00,92.0,0.0,29.76,NNW,340,10.0,13.0,24,-99.99,,,-99.99,,2013-07-04 08:12:00,
2013-07-04 01:20:00,92.0,0.0,29.76,NNW,338,9.0,13.0,23,-99.99,,,-99.99,,2013-07-04 08:20:00,
2013-07-04 01:28:00,91.0,0.0,29.76,NW,312,8.0,12.0,24,-99.99,,,-99.99,,2013-07-04 08:28:00,
2013-07-04 01:36:00,90.0,0.0,29.76,NW,313,8.0,9.0,22,-99.99,,,-99.99,,2013-07-04 08:36:00,
2013-07-04 01:44:00,91.0,0.0,29.76,NW,316,9.0,10.0,22,-99.99,,,-99.99,,2013-07-04 08:44:00,
2013-07-04 01:52:00,91.0,0.0,29.76,NW,320,7.0,10.0,22,-99.99,,,-99.99,,2013-07-04 08:52:00,
2013-07-04 02:00:00,90.0,0.0,29.76,NW,321,7.0,9.0,23,-99.99,,,-99.99,,2013-07-04 09:00:00,
2013-07-04 02:08:00,88.0,0.0,29.75,NW,318,7.0,8.0,26,-99.99,,,-99.99,,2013-07-04 09:08:00,
2013-07-04 02:16:00,89.0,0.0,29.75,NW,316,7.0,9.0,25,-99.99,,,-99.99,,2013-07-04 09:16:00,
2013-07-04 02:24:00,88.0,0.0,29.75,NW,320,6.0,7.0,26,-99.99,,,-99.99,,2013-07-04 09:24:00,
2013-07-04 02:32:00,89.0,0.0,29.75,WNW,295,6.0,8.0,25,-99.99,,,-99.99,,2013-07-04 09:32:00,
2013-07-04 02:40:00,87.0,0.0,29.74,WNW,300,7.0,8.0,26,-99.99,,,-99.99,,2013-07-04 09:40:00,
2013-07-04 02:48:00,87.0,0.0,29.74,NW,310,5.0,8.0,29,-99.99,,,-99.99,,2013-07-04 09:48:00,
2013-07-04 02:56:00,86.0,0.0,29.74,ENE,71,2.0,7.0,26,-99.99,,,-99.99,,2013-07-04 09:56:00,
2013-07-04 03:04:00,87.0,0.0,29.74,SE,132,5.0,6.0,29,-99.99,,,-99.99,,2013-07-04 10:04:00,
2013-07-04 03:12:00,86.0,0.0,29.74,SE,128,6.0,6.0,27,-99.99,,,-99.99,,2013-07-04 10:12:00,
2013-07-04 03:20:00,85.0,0.0,29.74,SE,129,6.0,6.0,25,-99.99,,,-99.99,,2013-07-04 10:20:00,
2013-07-04 03:28:00,85.0,0.0,29.74,SSE,156,5.0,8.0,28,-99.99,,,-99.99,,2013-07-04 10:28:00,
2013-07-04 03:36:00,84.0,0.0,29.73,South,172,6.0,7.0,28,-99.99,,,-99.99,,2013-07-04 10:36:00,
2013-07-04 03:44:00,84.0,0.0,29.73,SSW,202,7.0,7.0,26,-99.99,,,-99.99,,2013-07-04 10:44:00,
2013-07-04 03:52:00,84.0,0.0,29.73,SW,226,5.0,9.0,28,-99.99,,,-99.99,,2013-07-04 10:52:00,
2013-07-04 04:00:00,84.0,0.0,29.73,SW,217,6.0,8.0,26,-99.99,,,-99.99,,2013-07-04 11:00:00,
2013-07-04 04:08:00,84.0,0.0,29.73,WSW,243,5.0,8.0,28,-99.99,,,-99.99,,2013-07-04 11:08:00,
2013-07-04 04:16:00,84.0,0.0,29.73,WSW,245,3.0,8.0,26,-99.99,,,-99.99,,2013-07-04 11:16:00,
2013-07-04 04:24:00,83.0,0.0,29.73,North,1,1.0,6.0,29,-99.99,,,-99.99,,2013-07-04 11:24:00,
2013-07-04 04:32:00,81.0,0.0,29.73,NNE,18,2.0,5.0,28,-99.99,,,-99.99,,2013-07-04 11:32:00,
2013-07-04 04:40:00,82.0,0.0,29.74,NNE,28,3.0,5.0,28,-99.99,,,-99.99,,2013-07-04 11:40:00,
2013-07-04 04:48:00,80.0,0.0,29.74,ENE,60,3.0,7.0,31,-99.99,,,-99.99,,2013-07-04 11:48:00,
2013-07-04 04:56:00,79.0,0.0,29.74,East,83,5.0,6.0,31,-99.99,,,-99.99,,2013-07-04 11:56:00,
2013-07-04 05:04:00,78.0,0.0,29.74,East,88,3.0,5.0,33,-99.99,,,-99.99,,2013-07-04 12:04:00,
2013-07-04 05:12:00,79.0,0.0,29.74,SE,129,3.0,3.0,31,-99.99,,,-99.99,,2013-07-04 12:12:00,
2013-07-04 05:20:00,78.0,0.0,29.74,NE,39,3.0,3.0,33,-99.99,,,-99.99,,2013-07-04 12:20:00,
2013-07-04 05:28:00,77.0,0.0,29.75,ENE,72,3.0,5.0,34,-99.99,,,-99.99,,2013-07-04 12:28:00,
2013-07-04 05:36:00,76.0,0.0,29.75,NE,40,2.0,6.0,35,-99.99,,,-99.99,,2013-07-04 12:36:00,
2013-07-04 05:44:00,77.0,0.0,29.75,North,8,2.0,2.0,32,-99.99,,,-99.99,,2013-07-04 12:44:00,
2013-07-04 05:52:00,78.0,0.0,29.75,North,2,3.0,3.0,32,-99.99,,,-99.99,,2013-07-04 12:52:00,
2013-07-04 06:00:00,76.0,0.0,29.75,NW,324,2.0,5.0,34,-99.99,,,-99.99,,2013-07-04 13:00:00,
2013-07-04 06:08:00,76.0,0.0,29.75,NNE,33,2.0,5.0,32,-99.99,,,-99.99,,2013-07-04 13:08:00,
2013-07-04 06:16:00,76.0,0.0,29.75,ENE,58,3.0,5.0,34,-99.99,,,-99.99,,2013-07-04 13:16:00,
2013-07-04 06:24:00,77.0,0.0,29.76,NNE,33,3.0,5.0,34,-99.99,,,-99.99,,2013-07-04 13:24:00,
2013-07-04 06:32:00,79.0,0.0,29.76,NNE,20,2.0,5.0,31,-99.99,,,-99.99,,2013-07-04 13:32:00,
2013-07-04 06:40:00,79.0,0.0,29.77,West,262,3.0,3.0,32,-99.99,,,-99.99,,2013-07-04 13:40:00,
2013-07-04 06:48:00,79.0,0.0,29.76,WNW,287,2.0,5.0,31,-99.99,,,-99.99,,2013-07-04 13:48:00,
2013-07-04 06:56:00,80.0,0.0,29.77,WNW,302,2.0,5.0,30,-99.99,,,-99.99,,2013-07-04 13:56:00,
2013-07-04 07:04:00,82.0,0.0,29.77,NNW,341,5.0,6.0,29,-99.99,,,-99.99,,2013-07-04 14:04:00,
2013-07-04 07:12:00,85.0,0.0,29.77,NNW,344,3.0,6.0,29,-99.99,,,-99.99,,2013-07-04 14:12:00,
2013-07-04 07:20:00,85.0,0.0,29.77,NNW,342,3.0,6.0,30,-99.99,,,-99.99,,2013-07-04 14:20:00,
2013-07-04 07:28:00,88.0,0.0,29.78,NE,34,3.0,5.0,27,-99.99,,,-99.99,,2013-07-04 14:28:00,
2013-07-04 07:36:00,88.0,0.0,29.78,ENE,69,5.0,7.0,27,-99.99,,,-99.99,,2013-07-04 14:36:00,
2013-07-04 07:44:00,90.0,0.0,29.77,NE,45,5.0,7.0,25,-99.99,,,-99.99,,2013-07-04 14:44:00,
2013-07-04 07:52:00,89.0,0.0,29.78,ENE,65,2.0,7.0,27,-99.99,,,-99.99,,2013-07-04 14:52:00,
2013-07-04 08:00:00,90.0,0.0,29.78,East,87,5.0,6.0,24,-99.99,,,-99.99,,2013-07-04 15:00:00,
2013-07-04 08:08:00,90.0,0.0,29.78,East,89,3.0,6.0,24,-99.99,,,-99.99,,2013-07-04 15:08:00,
2013-07-04 08:16:00,90.0,0.0,29.78,ESE,121,3.0,6.0,24,-99.99,,,-99.99,,2013-07-04 15:16:00,
2013-07-04 08:24:00,92.0,0.0,29.78,SE,138,5.0,6.0,25,-99.99,,,-99.99,,2013-07-04 15:24:00,
2013-07-04 08:32:00,93.0,0.0,29.78,SSE,163,6.0,7.0,23,-99.99,,,-99.99,,2013-07-04 15:32:00,
2013-07-04 08:40:00,93.0,0.0,29.78,SSE,164,5.0,7.0,23,-99.99,,,-99.99,,2013-07-04 15:40:00,
2013-07-04 08:48:00,95.0,0.0,29.78,South,169,7.0,7.0,23,-99.99,,,-99.99,,2013-07-04 15:48:00,
2013-07-04 08:56:00,95.0,0.0,29.78,SSE,151,7.0,8.0,22,-99.99,,,-99.99,,2013-07-04 15:56:00,
2013-07-04 09:04:00,96.0,0.0,29.78,SSE,154,5.0,8.0,21,-99.99,,,-99.99,,2013-07-04 16:04:00,
2013-07-04 09:12:00,97.0,0.0,29.78,SE,143,6.0,8.0,20,-99.99,,,-99.99,,2013-07-04 16:12:00,
2013-07-04 09:20:00,98.0,0.0,29.77,ESE,121,5.0,8.0,21,-99.99,,,-99.99,,2013-07-04 16:20:00,
2013-07-04 09:28:00,99.0,0.0,29.77,SE,141,6.0,9.0,19,-99.99,,,-99.99,,2013-07-04 16:28:00,
2013-07-04 09:36:00,99.0,0.0,29.77,SSW,196,7.0,9.0,18,-99.99,,,-99.99,,2013-07-04 16:36:00,
2013-07-04 09:44:00,100.0,0.0,29.76,South,169,6.0,9.0,20,-99.99,,,-99.99,,2013-07-04 16:44:00,
2013-07-04 09:52:00,101.0,0.0,29.76,SSE,155,3.0,9.0,17,-99.99,,,-99.99,,2013-07-04 16:52:00,
2013-07-04 10:00:00,102.0,0.0,29.76,South,170,3.0,9.0,17,-99.99,,,-99.99,,2013-07-04 17:00:00,
2013-07-04 10:08:00,102.0,0.0,29.76,South,182,3.0,8.0,17,-99.99,,,-99.99,,2013-07-04 17:08:00,
2013-07-04 10:16:00,105.0,0.0,29.76,WNW,283,3.0,7.0,18,-99.99,,,-99.99,,2013-07-04 17:16:00,
2013-07-04 10:24:00,104.0,0.0,29.76,ESE,118,5.0,7.0,18,-99.99,,,-99.99,,2013-07-04 17:24:00,
2013-07-04 10:32:00,103.0,0.0,29.76,SSE,151,5.0,8.0,18,-99.99,,,-99.99,,2013-07-04 17:32:00,
2013-07-04 10:40:00,104.0,0.0,29.76,West,275,5.0,7.0,18,-99.99,,,-99.99,,2013-07-04 17:40:00,
2013-07-04 10:48:00,105.0,0.0,29.76,SSE,160,2.0,8.0,16,-99.99,,,-99.99,,2013-07-04 17:48:00,
2013-07-04 10:56:00,105.0,0.0,29.76,SE,131,2.0,8.0,18,-99.99,,,-99.99,,2013-07-04 17:56:00,
2013-07-04 11:04:00,106.0,0.0,29.76,SSE,161,2.0,8.0,17,-99.99,,,-99.99,,2013-07-04 18:04:00,
2013-07-04 11:12:00,107.0,0.0,29.76,NE,43,0.0,8.0,15,-99.99,,,-99.99,,2013-07-04 18:12:00,
2013-07-04 11:20:00,106.0,0.0,29.76,SSW,208,2.0,8.0,15,-99.99,,,-99.99,,2013-07-04 18:20:00,
2013-07-04 11:28:00,106.0,0.0,29.76,SSE,148,7.0,12.0,15,-99.99,,,-99.99,,2013-07-04 18:28:00,
2013-07-04 11:36:00,106.0,0.0,29.75,SSE,147,7.0,10.0,15,-99.99,,,-99.99,,2013-07-04 18:36:00,
2013-07-04 11:44:00,107.0,0.0,29.75,SSE,165,8.0,15.0,17,-99.99,,,-99.99,,2013-07-04 18:44:00,
2013-07-04 11:52:00,105.0,0.0,29.75,SSE,149,10.0,14.0,19,-99.99,,,-99.99,,2013-07-04 18:52:00,
2013-07-04 12:00:00,105.0,0.0,29.75,SSE,148,8.0,12.0,15,-99.99,,,-99.99,,2013-07-04 19:00:00,
2013-07-04 12:08:00,105.0,0.0,29.75,ENE,74,9.0,12.0,16,-99.99,,,-99.99,,2013-07-04 19:08:00,
2013-07-04 12:16:00,106.0,0.0,29.75,SSE,165,2.0,12.0,17,-99.99,,,-99.99,,2013-07-04 19:16:00,
2013-07-04 12:24:00,107.0,0.0,29.75,SE,144,7.0,15.0,19,-99.99,,,-99.99,,2013-07-04 19:24:00,
2013-07-04 12:32:00,108.0,0.0,29.74,SE,131,7.0,12.0,16,-99.99,,,-99.99,,2013-07-04 19:32:00,
2013-07-04 12:40:00,108.0,0.0,29.74,SW,214,2.0,12.0,16,-99.99,,,-99.99,,2013-07-04 19:40:00,
2013-07-04 12:48:00,109.0,0.0,29.73,SSE,165,12.0,16.0,14,-99.99,,,-99.99,,2013-07-04 19:48:00,
2013-07-04 12:56:00,110.0,0.0,29.73,SSW,193,5.0,16.0,16,-99.99,,,-99.99,,2013-07-04 19:56:00,
2013-07-04 13:04:00,109.0,0.0,29.73,WSW,238,2.0,14.0,16,-99.99,,,-99.99,,2013-07-04 20:04:00,
2013-07-04 13:12:00,110.0,0.0,29.73,South,189,10.0,13.0,14,-99.99,,,-99.99,,2013-07-04 20:12:00,
2013-07-04 13:20:00,109.0,0.0,29.72,WSW,245,3.0,13.0,14,-99.99,,,-99.99,,2013-07-04 20:20:00,
2013-07-04 13:28:00,109.0,0.0,29.72,SSW,202,3.0,13.0,14,-99.99,,,-99.99,,2013-07-04 20:28:00,
2013-07-04 13:36:00,110.0,0.0,29.72,SSE,149,6.0,15.0,14,-99.99,,,-99.99,,2013-07-04 20:36:00,
2013-07-04 13:44:00,110.0,0.0,29.72,SSE,149,6.0,15.0,14,-99.99,,,-99.99,,2013-07-04 20:44:00,
2013-07-04 13:52:00,111.0,0.0,29.70,South,173,10.0,20.0,13,-99.99,,,-99.99,,2013-07-04 20:52:00,
2013-07-04 14:04:00,112.0,0.0,29.70,SSE,159,12.0,20.0,13,-99.99,,,-99.99,,2013-07-04 21:04:00,
2013-07-04 14:12:00,111.0,0.0,29.69,South,169,10.0,21.0,16,-99.99,,,-99.99,,2013-07-04 21:12:00,
2013-07-04 14:20:00,111.0,0.0,29.69,South,187,12.0,21.0,14,-99.99,,,-99.99,,2013-07-04 21:20:00,
2013-07-04 14:28:00,110.0,0.0,29.68,SE,138,12.0,20.0,16,-99.99,,,-99.99,,2013-07-04 21:28:00,
2013-07-04 14:36:00,111.0,0.0,29.68,WNW,289,5.0,15.0,15,-99.99,,,-99.99,,2013-07-04 21:36:00,
2013-07-04 14:44:00,112.0,0.0,29.67,SSE,152,8.0,20.0,15,-99.99,,,-99.99,,2013-07-04 21:44:00,
2013-07-04 14:52:00,111.0,0.0,29.67,SSE,149,7.0,20.0,13,-99.99,,,-99.99,,2013-07-04 21:52:00,
2013-07-04 15:00:00,111.0,0.0,29.67,SSW,209,7.0,22.0,13,-99.99,,,-99.99,,2013-07-04 22:00:00,
2013-07-04 15:08:00,112.0,0.0,29.66,SSE,163,10.0,22.0,15,-99.99,,,-99.99,,2013-07-04 22:08:00,
2013-07-04 15:16:00,112.0,0.0,29.66,SSW,205,17.0,24.0,14,-99.99,,,-99.99,,2013-07-04 22:16:00,
2013-07-04 15:24:00,112.0,0.0,29.66,South,181,12.0,24.0,13,-99.99,,,-99.99,,2013-07-04 22:24:00,
2013-07-04 15:32:00,111.0,0.0,29.66,SSE,162,6.0,20.0,13,-99.99,,,-99.99,,2013-07-04 22:32:00,
2013-07-04 15:40:00,112.0,0.0,29.65,SSW,192,13.0,21.0,15,-99.99,,,-99.99,,2013-07-04 22:40:00,
2013-07-04 15:48:00,111.0,0.0,29.65,South,186,13.0,21.0,13,-99.99,,,-99.99,,2013-07-04 22:48:00,
2013-07-04 15:56:00,112.0,0.0,29.65,SSE,156,16.0,25.0,13,-99.99,,,-99.99,,2013-07-04 22:56:00,
2013-07-04 16:04:00,111.0,0.0,29.64,SW,216,13.0,21.0,14,-99.99,,,-99.99,,2013-07-04 23:04:00,
2013-07-04 16:12:00,112.0,0.0,29.64,South,184,15.0,21.0,15,-99.99,,,-99.99,,2013-07-04 23:12:00,
2013-07-04 16:20:00,111.0,0.0,29.64,South,183,18.0,24.0,16,-99.99,,,-99.99,,2013-07-04 23:20:00,
2013-07-04 16:28:00,111.0,0.0,29.64,SSW,212,8.0,26.0,16,-99.99,,,-99.99,,2013-07-04 23:28:00,
2013-07-04 16:36:00,111.0,0.0,29.64,South,187,15.0,24.0,13,-99.99,,,-99.99,,2013-07-04 23:36:00,
2013-07-04 16:44:00,111.0,0.0,29.64,WSW,240,10.0,21.0,14,-99.99,,,-99.99,,2013-07-04 23:44:00,
2013-07-04 16:52:00,110.0,0.0,29.64,WNW,295,15.0,20.0,17,-99.99,,,-99.99,,2013-07-04 23:52:00,
2013-07-04 17:00:00,111.0,0.0,29.64,WNW,282,15.0,21.0,17,-99.99,,,-99.99,,2013-07-05 00:00:00,
2013-07-04 17:08:00,111.0,0.0,29.64,WNW,284,14.0,26.0,16,-99.99,,,-99.99,,2013-07-05 00:08:00,
2013-07-04 17:16:00,110.0,0.0,29.63,NNW,337,23.0,38.0,17,-99.99,,,-99.99,,2013-07-05 00:16:00,
2013-07-04 17:24:00,110.0,0.0,29.63,NNW,330,23.0,35.0,17,-99.99,,,-99.99,,2013-07-05 00:24:00,
2013-07-04 17:32:00,108.0,0.0,29.64,NNW,336,23.0,31.0,17,-99.99,,,-99.99,,2013-07-05 00:32:00,
2013-07-04 17:40:00,108.0,0.0,29.63,NW,326,29.0,33.0,16,-99.99,,,-99.99,,2013-07-05 00:40:00,
2013-07-04 17:48:00,107.0,0.0,29.63,NNW,345,29.0,37.0,16,-99.99,,,-99.99,,2013-07-05 00:48:00,
2013-07-04 17:56:00,107.0,0.0,29.63,NNW,345,29.0,37.0,16,-99.99,,,-99.99,,2013-07-05 00:56:00,
2013-07-04 18:04:00,107.0,0.0,29.63,NNW,345,29.0,37.0,16,-99.99,,,-99.99,,2013-07-05 01:04:00,
2013-07-04 18:12:00,106.0,0.0,29.65,NNW,342,30.0,36.0,18,-99.99,,,-99.99,,2013-07-05 01:12:00,
2013-07-04 18:20:00,106.0,0.0,29.65,NNW,347,25.0,33.0,18,-99.99,,,-99.99,,2013-07-05 01:20:00,
2013-07-04 18:28:00,107.0,0.0,29.65,NNW,333,24.0,30.0,17,-99.99,,,-99.99,,2013-07-05 01:28:00,
2013-07-04 18:32:00,107.0,0.0,29.65,NNW,344,25.0,28.0,18,-99.99,,,-99.99,,2013-07-05 01:32:00,
2013-07-04 18:40:00,106.0,0.0,29.65,NNW,342,24.0,29.0,16,-99.99,,,-99.99,,2013-07-05 01:40:00,
2013-07-04 18:48:00,106.0,0.0,29.66,NNW,346,15.0,29.0,16,-99.99,,,-99.99,,2013-07-05 01:48:00,
2013-07-04 18:56:00,106.0,0.0,29.66,North,5,15.0,23.0,16,-99.99,,,-99.99,,2013-07-05 01:56:00,
2013-07-04 19:04:00,106.0,0.0,29.66,North,352,17.0,22.0,16,-99.99,,,-99.99,,2013-07-05 02:04:00,
2013-07-04 19:12:00,105.0,0.0,29.66,North,353,16.0,21.0,18,-99.99,,,-99.99,,2013-07-05 02:12:00,
2013-07-04 19:20:00,105.0,0.0,29.66,NNW,342,15.0,21.0,17,-99.99,,,-99.99,,2013-07-05 02:20:00,
2013-07-04 19:28:00,104.0,0.0,29.66,NNW,328,10.0,18.0,17,-99.99,,,-99.99,,2013-07-05 02:28:00,
2013-07-04 19:36:00,104.0,0.0,29.66,NW,316,7.0,16.0,18,-99.99,,,-99.99,,2013-07-05 02:36:00,
2013-07-04 19:44:00,104.0,0.0,29.66,NW,308,9.0,12.0,21,-99.99,,,-99.99,,2013-07-05 02:44:00,
2013-07-04 19:52:00,103.0,0.0,29.67,NW,323,9.0,14.0,17,-99.99,,,-99.99,,2013-07-05 02:52:00,
2013-07-04 20:00:00,102.0,0.0,29.67,WNW,301,9.0,13.0,19,-99.99,,,-99.99,,2013-07-05 03:00:00,
2013-07-04 20:08:00,103.0,0.0,29.67,WNW,290,6.0,12.0,20,-99.99,,,-99.99,,2013-07-05 03:08:00,
2013-07-04 20:16:00,101.0,0.0,29.67,West,273,5.0,8.0,19,-99.99,,,-99.99,,2013-07-05 03:16:00,
2013-07-04 20:24:00,100.0,0.0,29.67,West,280,7.0,7.0,21,-99.99,,,-99.99,,2013-07-05 03:24:00,
2013-07-04 20:32:00,100.0,0.0,29.67,WNW,285,7.0,8.0,22,-99.99,,,-99.99,,2013-07-05 03:32:00,
2013-07-04 20:40:00,98.0,0.0,29.67,West,265,8.0,9.0,25,-99.99,,,-99.99,,2013-07-05 03:40:00,
2013-07-04 20:48:00,98.0,0.0,29.68,West,272,7.0,9.0,25,-99.99,,,-99.99,,2013-07-05 03:48:00,
2013-07-04 20:56:00,98.0,0.0,29.68,West,269,8.0,12.0,25,-99.99,,,-99.99,,2013-07-05 03:56:00,
2013-07-04 21:04:00,98.0,0.0,29.68,West,264,10.0,12.0,24,-99.99,,,-99.99,,2013-07-05 04:04:00,
2013-07-04 21:12:00,97.0,0.0,29.69,West,275,8.0,12.0,26,-99.99,,,-99.99,,2013-07-05 04:12:00,
2013-07-04 21:20:00,96.0,0.0,29.69,West,281,8.0,10.0,27,-99.99,,,-99.99,,2013-07-05 04:20:00,
2013-07-04 21:24:00,96.0,0.0,29.69,West,276,8.0,10.0,25,-99.99,,,-99.99,,2013-07-05 04:24:00,
2013-07-04 21:28:00,96.0,0.0,29.69,West,276,8.0,10.0,25,-99.99,,,-99.99,,2013-07-05 04:28:00,
2013-07-04 21:32:00,97.0,0.0,29.69,West,273,8.0,10.0,25,-99.99,,,-99.99,,2013-07-05 04:32:00,
2013-07-04 21:40:00,96.0,0.0,29.70,West,259,6.0,9.0,27,-99.99,,,-99.99,,2013-07-05 04:40:00,
2013-07-04 21:48:00,94.0,0.0,29.70,West,268,5.0,7.0,28,-99.99,,,-99.99,,2013-07-05 04:48:00,
2013-07-04 21:56:00,95.0,0.0,29.70,West,261,3.0,7.0,25,-99.99,,,-99.99,,2013-07-05 04:56:00,
2013-07-04 22:04:00,95.0,0.0,29.70,WNW,291,2.0,6.0,27,-99.99,,,-99.99,,2013-07-05 05:04:00,
2013-07-04 22:12:00,94.0,0.0,29.71,NW,306,3.0,6.0,24,-99.99,,,-99.99,,2013-07-05 05:12:00,
2013-07-04 22:20:00,93.0,0.0,29.71,SW,233,3.0,6.0,27,-99.99,,,-99.99,,2013-07-05 05:20:00,
2013-07-04 22:28:00,94.0,0.0,29.71,WSW,251,3.0,6.0,27,-99.99,,,-99.99,,2013-07-05 05:28:00,
2013-07-04 22:36:00,93.0,0.0,29.71,SW,230,3.0,5.0,26,-99.99,,,-99.99,,2013-07-05 05:36:00,
2013-07-04 22:44:00,92.0,0.0,29.71,South,175,1.0,5.0,27,-99.99,,,-99.99,,2013-07-05 05:44:00,
2013-07-04 22:52:00,90.0,0.0,29.71,SE,133,6.0,7.0,30,-99.99,,,-99.99,,2013-07-05 05:52:00,
2013-07-04 23:00:00,90.0,0.0,29.71,SSE,158,2.0,7.0,29,-99.99,,,-99.99,,2013-07-05 06:00:00,
2013-07-04 23:08:00,91.0,0.0,29.71,SW,229,2.0,3.0,28,-99.99,,,-99.99,,2013-07-05 06:08:00,
2013-07-04 23:16:00,89.0,0.0,29.71,SE,128,6.0,6.0,29,-99.99,,,-99.99,,2013-07-05 06:16:00,
2013-07-04 23:24:00,88.0,0.0,29.72,SE,145,8.0,8.0,30,-99.99,,,-99.99,,2013-07-05 06:24:00,
2013-07-04 23:32:00,88.0,0.0,29.72,SSE,150,7.0,8.0,30,-99.99,,,-99.99,,2013-07-05 06:32:00,
2013-07-04 23:40:00,88.0,0.0,29.72,SSE,158,7.0,8.0,30,-99.99,,,-99.99,,2013-07-05 06:40:00,
2013-07-04 23:48:00,89.0,0.0,29.72,SSE,167,6.0,7.0,32,-99.99,,,-99.99,,2013-07-05 06:48:00,
2013-07-04 23:56:00,89.0,0.0,29.72,South,185,8.0,9.0,34,-99.99,,,-99.99,,2013-07-05 06:56:00,